Wind_Speed
71 69 62 52 59 54 54 59 52 51 50 49 47 49 53 48 43 39 46 46 47 44 44 43 43 41 39 34 35 35 34 36 40 40 38 37 36 35 32 31 34 42 42 41
77 70 73 61 56 56 54 59 59 57 55 54 51 54 58 51 47 47 46 48 47 51 48 47 47 46 46 46 46 44 43 44 43 45 47 45 43 39 37 39 41 36 38 45
78 74 69 65 64 64 63 62 60 62 57 57 60 60 60 50 47 46 46 46 46 46 47 48 49 50 51 51 49 46 46 45 45 42 44 48 45 43 46 48 46 45 46 45
76 78 71 69 64 65 65 65 61 62 63 60 61 65 62 53 51 51 50 49 51 51 51 50 50 50 52 54 53 52 51 53 54 52 49 50 51 54 55 56 55 55 55 52
80 78 80 69 69 71 72 69 66 68 64 62 67 69 60 55 56 55 54 53 53 53 55 55 54 54 52 52 55 56 57 55 58 59 56 59 60 61 65 62 58 61 59 58
82 80 82 78 70 74 74 74 73 67 67 70 69 69 63 63 63 63 61 59 60 59 58 59 59 59 59 60 60 61 60 60 59 61 63 63 65 64 61 63 68 68 66 65
94 86 77 81 75 66 69 70 69 70 72 75 72 71 67 65 65 65 65 63 65 64 62 63 63 63 64 63 62 63 63 62 61 62 64 65 64 65 68 70 71 75 76 76
99 92 88 80 82 78 74 70 69 73 74 74 74 73 72 71 72 72 74 72 68 66 63 62 64 65 66 66 66 66 64 64 66 66 66 67 68 71 74 77 77 81 81 80
97 99 96 90 87 86 84 81 79 77 74 74 72 69 75 77 78 77 77 76 72 74 78 73 70 68 67 71 72 71 71 73 73 75 78 80 82 82 82 83 86 84 81 82
82 93 98 95 92 91 88 87 88 87 85 85 81 81 83 83 81 81 82 82 79 78 71 72 73 72 76 77 79 77 78 83 88 87 88 90 92 92 92 92 88 90 89 90
76 81 88 96 94 94 97 95 94 91 89 89 91 90 88 88 89 82 77 77 76 78 79 79 77 80 82 82 84 88 95 96 95 94 96 95 95 93 95 95 92 91 93 96
67 76 79 86 89 90 89 94 99 99 97 94 93 90 87 88 89 85 85 86 84 85 86 88 90 93 94 96 98 101 99 98 98 97 98 100 101 100 96 94 96 103 107 106
64 72 78 85 97 97 97 90 87 87 91 92 91 92 92 90 90 94 96 96 93 93 96 97 99 101 101 100 100 100 101 104 107 108 110 111 106 106 106 105 105 108 112 115
64 67 73 80 83 89 93 94 94 88 85 88 91 92 94 94 92 91 93 94 96 98 102 103 104 105 107 110 112 113 113 113 114 113 111 114 112 109 107 107 110 110 115 118
54 62 67 72 76 80 82 84 88 92 95 96 96 97 98 98 99 101 104 104 105 105 106 107 108 108 110 111 113 114 115 115 114 113 112 108 105 102 101 100 102 104 107 109
49 55 60 65 70 71 74 77 81 85 91 98 102 103 103 103 104 105 107 108 108 107 107 107 106 106 106 105 105 104 102 101 100 99 99 99 98 96 95 95 96 99 101 102
47 49 55 61 65 69 71 72 73 75 76 78 81 86 91 97 102 105 106 103 102 102 100 98 98 99 101 97 96 96 94 93 91 90 90 90 89 88 86 87 87 88 91 94
46 48 51 54 59 63 65 68 69 70 73 75 77 78 80 82 84 86 88 90 91 92 92 92 93 93 92 91 90 88 85 83 80 79 80 81 82 81 81 80 80 81 83 86
42 46 49 52 55 57 60 63 65 67 70 71 73 75 77 78 80 82 83 84 85 86 88 88 87 86 84 83 82 79 77 74 73 72 73 73 74 76 77 79 81 83 84 85
39 42 45 49 52 56 60 63 65 67 69 71 73 74 75 76 77 78 78 79 79 79 79 80 80 79 75 73 71 70 69 69 67 67 67 68 70 72 74 76 78 80 83 86
39 42 45 48 51 54 56 58 60 62 63 65 65 66 67 68 68 69 70 70 71 70 69 68 68 68 68 67 68 68 68 68 68 69 69 70 71 72 73 75 77 80 82 85
39 41 42 43 45 46 48 50 52 54 56 57 58 59 60 61 61 62 61 60 60 61 62 63 64 65 67 68 69 70 71 73 73 73 73 74 75 75 75 77 78 78 77 79
40 42 43 45 45 45 45 45 46 47 48 48 49 50 51 52 54 55 57 58 59 60 62 65 68 69 70 71 72 72 71 71 70 69 70 71 72 73 73 73 75 76 77 78
37 34 34 34 34 34 36 38 40 41 43 45 47 50 52 54 55 57 59 61 63 65 67 68 69 69 68 68 68 69 70 69 70 69 71 72 72 74 75 75 76 76 77 77
25 27 29 32 34 37 40 42 45 47 49 51 53 55 56 58 59 61 62 64 67 67 68 69 68 68 67 68 67 67 69 69 68 69 70 72 73 73 73 73 72 72 72 72
31 34 37 39 40 42 44 47 50 51 53 56 57 59 61 63 65 67 68 67 67 67 66 64 64 65 64 64 65 65 65 66 66 66 66 67 67 68 68 68 68 68 69 69
36 40 43 45 48 50 52 54 57 58 58 62 64 64 64 63 64 63 63 62 62 61 62 62 61 61 60 61 61 61 61 62 62 63 63 63 64 65 65 65 66 66 66 66
Wind_Direction
208 206 210 214 216 218 214 214 224 225 230 233 237 242 246 248 241 240 246 245 244 248 248 247 250 251 252 259 268 272 272 279 275 278 272 275 286 290 292 289 283 272 272 272
209 212 211 215 217 217 219 221 222 223 230 232 235 241 245 246 245 243 249 251 252 246 251 252 252 255 259 260 267 274 273 274 279 285 279 277 281 286 285 293 295 290 282 275
213 213 213 216 221 221 220 225 223 225 230 234 237 238 246 242 246 248 250 252 251 252 253 254 257 258 259 259 263 269 263 267 270 271 275 271 273 277 280 286 288 289 291 288
216 213 214 216 216 218 221 221 222 225 229 234 239 241 239 245 246 250 248 248 253 254 254 255 255 256 257 260 260 262 267 271 271 268 269 272 270 275 281 288 294 292 291 288
215 216 215 216 214 218 222 227 229 231 231 232 238 243 244 245 246 246 245 244 251 255 258 258 259 261 261 260 262 264 266 269 268 266 264 267 270 276 282 286 286 287 288 283
211 217 216 218 218 217 223 227 229 232 232 236 239 242 242 245 248 251 252 250 253 256 259 264 266 265 265 266 265 266 267 269 270 270 269 269 272 277 279 283 286 285 285 283
212 214 218 221 222 219 223 225 229 232 236 240 242 244 246 248 249 251 252 254 256 258 260 263 264 266 268 268 267 267 266 267 268 267 269 270 273 276 279 282 282 283 283 284
214 216 216 221 226 225 225 224 228 235 238 242 242 244 249 251 252 253 256 259 258 258 260 260 262 265 266 267 269 270 271 272 273 272 272 272 273 276 280 283 281 282 280 277
217 216 219 221 224 228 230 232 234 234 237 243 246 245 247 250 253 256 258 260 259 263 264 264 264 265 268 270 271 271 270 271 272 274 278 280 282 282 280 280 282 279 276 273
218 219 221 225 226 229 232 234 234 238 241 243 244 245 246 249 252 254 258 262 262 262 264 264 260 261 264 267 268 268 270 275 279 279 281 282 282 282 281 282 281 280 276 277
221 221 222 225 227 232 234 234 238 238 240 243 246 249 251 252 256 259 258 261 263 261 264 263 261 262 263 263 264 268 274 277 278 279 280 280 282 282 283 281 278 277 277 279
220 225 225 226 226 228 234 237 237 239 242 244 246 250 252 254 255 254 256 256 258 259 259 259 259 262 263 266 267 272 272 273 273 273 277 279 280 281 278 275 275 276 276 278
221 223 225 227 228 228 229 233 236 238 241 243 246 250 252 255 255 253 254 257 258 260 262 263 264 264 265 267 267 268 270 271 274 274 276 278 277 275 273 272 274 276 279 279
222 224 228 230 232 233 234 234 235 238 242 246 249 250 249 252 254 255 257 259 261 262 262 262 262 263 265 267 269 271 273 274 276 277 276 277 277 275 273 272 272 271 272 273
228 231 230 234 237 238 240 241 242 242 243 246 248 249 250 252 254 256 259 262 263 264 266 266 267 268 270 272 273 275 276 276 276 276 275 274 272 272 271 270 270 269 269 270
231 231 235 238 241 244 245 246 245 246 246 247 248 251 254 257 260 262 263 265 267 269 271 272 273 274 276 277 277 276 275 274 273 273 272 272 272 271 270 269 267 267 267 267
234 234 236 237 240 244 247 249 251 252 253 254 255 256 256 258 261 263 266 268 270 272 273 274 276 277 277 276 276 277 276 275 275 274 273 272 272 271 270 269 267 267 267 267
234 237 239 240 242 244 247 250 254 256 258 260 261 262 263 264 265 267 268 269 271 272 274 276 277 278 278 277 277 278 278 278 277 275 273 272 271 271 269 268 268 267 267 268
237 240 243 247 249 251 253 256 258 259 261 262 263 264 266 268 268 269 271 272 273 274 274 275 276 277 278 279 281 282 282 281 280 279 275 273 272 271 271 270 270 269 269 269
242 244 246 248 250 252 254 256 258 261 263 264 265 267 269 270 271 271 272 273 273 274 275 277 278 279 279 280 280 280 280 279 279 278 277 276 274 272 272 272 272 272 272 271
248 250 251 253 255 257 259 262 264 265 267 268 269 270 270 271 271 272 273 274 274 275 275 276 277 277 278 278 279 280 281 281 280 280 279 279 278 277 277 276 275 274 274 275
258 259 262 265 267 269 270 270 271 271 271 271 272 273 272 273 273 275 275 275 274 275 275 276 277 278 278 279 280 281 281 282 283 283 283 283 283 284 283 283 283 283 283 283
271 275 277 278 276 274 272 271 270 270 270 270 270 271 271 272 273 272 274 276 277 278 278 279 280 281 281 282 283 285 286 286 286 287 287 287 286 286 285 285 284 284 283 282
267 266 267 268 268 270 271 271 271 271 271 271 272 274 275 276 276 278 280 281 281 281 281 282 283 285 286 287 287 288 288 288 289 289 288 286 285 284 283 283 283 283 283 284
264 267 269 270 271 272 273 274 274 275 276 277 278 279 281 282 282 282 281 282 283 284 285 286 287 288 289 289 288 288 287 286 285 284 283 283 283 283 284 285 285 285 286 286
271 273 275 276 277 278 278 278 279 280 281 280 281 282 282 283 284 285 286 287 287 287 287 287 287 288 288 287 286 285 284 284 284 284 284 285 285 286 286 287 287 287 288 287
279 279 279 280 281 282 284 284 284 286 286 286 287 288 288 288 288 288 288 288 288 288 288 287 287 287 287 287 286 286 286 286 286 286 286 286 287 287 287 288 288 288 289 289
Height
10387 10397 10409 10418 10427 10435 10443 10456 10463 10470 10476 10482 10488 10491 10488 10498 10511 10517 10519 10521 10524 10530 10534 10539 10541 10542 10542 10542 10545 10549 10549 10546 10545 10546 10547 10546 10545 10546 10547 10546 10544 10544 10543 10542
10375 10387 10398 10408 10419 10428 10438 10446 10452 10459 10464 10473 10476 10474 10477 10487 10499 10506 10507 10510 10520 10519 10522 10528 10531 10532 10532 10535 10536 10536 10538 10539 10538 10536 10536 10537 10537 10537 10535 10534 10534 10533 10531 10530
10362 10374 10385 10397 10406 10416 10423 10430 10437 10445 10451 10457 10458 10461 10465 10480 10486 10496 10497 10498 10500 10505 10511 10514 10517 10519 10519 10521 10524 10526 10524 10524 10526 10528 10525 10523 10524 10523 10522 10522 10522 10520 10519 10519
10347 10361 10373 10382 10396 10405 10411 10415 10426 10432 10436 10446 10446 10445 10457 10469 10477 10479 10483 10487 10485 10490 10495 10499 10502 10505 10506 10507 10509 10512 10512 10513 10514 10514 10514 10513 10512 10509 10507 10507 10506 10505 10504 10504
10334 10348 10362 10370 10382 10390 10396 10405 10413 10417 10425 10432 10432 10433 10452 10461 10461 10462 10468 10475 10473 10476 10478 10482 10486 10488 10491 10492 10493 10495 10497 10499 10499 10501 10500 10498 10497 10496 10494 10493 10492 10490 10489 10488
10324 10336 10348 10358 10368 10376 10382 10391 10396 10405 10411 10414 10419 10427 10441 10443 10446 10448 10453 10460 10459 10461 10463 10464 10467 10471 10473 10475 10477 10478 10479 10481 10483 10484 10484 10483 10482 10481 10478 10476 10473 10470 10469 10469
10309 10323 10339 10348 10358 10366 10371 10383 10391 10394 10397 10397 10408 10416 10425 10429 10432 10433 10435 10441 10443 10446 10449 10450 10452 10452 10453 10455 10457 10459 10459 10461 10463 10466 10468 10468 10465 10464 10461 10459 10456 10450 10448 10448
10299 10314 10330 10338 10343 10355 10364 10372 10374 10376 10382 10385 10395 10402 10407 10411 10415 10418 10419 10423 10426 10428 10432 10434 10435 10436 10438 10439 10439 10440 10441 10441 10442 10443 10446 10448 10448 10448 10443 10439 10437 10432 10429 10427
10287 10302 10309 10319 10328 10335 10347 10357 10362 10363 10367 10372 10380 10391 10390 10395 10397 10400 10402 10406 10410 10413 10414 10416 10416 10417 10419 10418 10420 10421 10422 10422 10423 10423 10423 10424 10424 10423 10422 10419 10414 10408 10406 10404
10274 10286 10300 10304 10315 10327 10334 10339 10343 10347 10354 10356 10364 10369 10373 10377 10382 10385 10386 10389 10391 10394 10397 10398 10398 10399 10400 10400 10401 10401 10400 10401 10401 10399 10399 10397 10395 10393 10392 10390 10387 10383 10380 10378
10261 10271 10281 10288 10307 10316 10314 10322 10327 10334 10340 10345 10347 10348 10355 10359 10362 10366 10368 10370 10371 10374 10376 10378 10380 10381 10381 10381 10380 10379 10379 10378 10377 10375 10374 10371 10368 10365 10362 10360 10357 10354 10351 10349
10254 10257 10269 10280 10287 10291 10297 10303 10311 10316 10324 10328 10330 10333 10337 10340 10343 10346 10348 10350 10352 10354 10356 10358 10358 10358 10358 10358 10356 10356 10354 10354 10354 10353 10351 10348 10345 10342 10338 10334 10331 10323 10320 10320
10234 10240 10248 10251 10259 10265 10274 10284 10293 10300 10306 10312 10314 10316 10320 10322 10323 10325 10325 10327 10329 10331 10332 10333 10333 10334 10332 10332 10331 10329 10328 10326 10324 10324 10322 10321 10318 10317 10313 10308 10305 10295 10285 10282
10219 10228 10235 10239 10245 10254 10261 10271 10280 10288 10293 10294 10297 10299 10301 10302 10302 10303 10303 10304 10305 10306 10307 10308 10307 10307 10307 10306 10306 10303 10300 10297 10296 10290 10286 10286 10283 10283 10280 10278 10271 10272 10262 10258
10215 10220 10225 10228 10234 10241 10250 10259 10267 10274 10277 10277 10276 10278 10280 10282 10282 10281 10282 10283 10282 10282 10281 10280 10280 10280 10279 10277 10274 10272 10268 10265 10261 10255 10249 10247 10245 10244 10244 10244 10240 10236 10232 10230
10207 10212 10217 10221 10225 10230 10234 10240 10246 10249 10254 10258 10260 10259 10257 10258 10260 10261 10260 10258 10257 10256 10255 10254 10253 10253 10250 10245 10239 10235 10232 10228 10224 10221 10217 10214 10212 10212 10211 10210 10209 10204 10201 10200
10196 10202 10205 10209 10212 10215 10219 10221 10225 10229 10233 10235 10238 10239 10239 10239 10238 10237 10237 10234 10231 10229 10228 10226 10222 10221 10218 10210 10206 10203 10199 10196 10192 10189 10186 10183 10181 10179 10178 10177 10177 10174 10170 10167
10187 10191 10193 10196 10199 10201 10204 10207 10210 10212 10214 10214 10215 10216 10217 10217 10216 10215 10213 10210 10207 10204 10201 10198 10194 10189 10186 10182 10177 10173 10169 10167 10164 10161 10158 10156 10154 10152 10150 10149 10148 10147 10145 10141
10180 10183 10185 10187 10190 10192 10194 10195 10197 10197 10197 10197 10197 10196 10196 10194 10192 10190 10187 10184 10181 10178 10174 10170 10167 10163 10159 10156 10153 10149 10144 10141 10138 10135 10134 10131 10128 10126 10124 10122 10120 10118 10117 10115
10172 10175 10177 10178 10179 10179 10179 10180 10180 10180 10179 10178 10177 10175 10173 10171 10169 10166 10164 10160 10157 10154 10150 10147 10144 10141 10137 10133 10130 10126 10122 10119 10116 10113 10110 10107 10105 10103 10100 10096 10093 10090 10088 10085
10162 10164 10164 10165 10165 10165 10164 10164 10163 10162 10161 10158 10157 10155 10152 10149 10147 10144 10141 10138 10136 10133 10129 10126 10123 10119 10116 10112 10108 10104 10101 10098 10094 10090 10087 10084 10081 10079 10076 10073 10069 10065 10062 10059
10150 10151 10152 10152 10152 10151 10150 10148 10147 10144 10142 10139 10137 10134 10132 10129 10127 10124 10121 10117 10115 10112 10109 10105 10102 10098 10094 10090 10087 10084 10080 10076 10072 10069 10065 10062 10057 10054 10051 10048 10044 10039 10037 10032
10140 10140 10139 10138 10137 10135 10133 10131 10129 10127 10125 10122 10119 10117 10114 10111 10109 10106 10102 10099 10095 10092 10089 10085 10082 10078 10074 10070 10065 10062 10059 10054 10050 10047 10043 10038 10035 10030 10025 10023 10018 10013 10008 10005
10130 10129 10128 10126 10124 10122 10120 10117 10115 10112 10109 10106 10104 10101 10097 10094 10091 10087 10083 10079 10076 10073 10069 10065 10061 10057 10053 10049 10045 10040 10036 10034 10027 10023 10018 10013 10009 10003 9998 9994 9990 9986 9981 9976
10120 10119 10116 10114 10112 10109 10106 10103 10100 10097 10093 10091 10087 10084 10081 10076 10072 10068 10065 10062 10056 10052 10050 10044 10040 10036 10032 10026 10022 10019 10012 10007 10004 9999 9993 9988 9983 9978 9974 9969 9964 9959 9955 9951
10112 10109 10106 10103 10100 10096 10093 10089 10085 10082 10079 10074 10071 10067 10062 10059 10055 10050 10045 10040 10035 10031 10026 10023 10018 10013 10008 10004 9998 9994 9989 9983 9978 9974 9969 9964 9960 9955 9950 9945 9941 9937 9932 9927
10101 10097 10092 10089 10085 10081 10077 10074 10068 10066 10064 10056 10049 10045 10040 10037 10032 10027 10022 10018 10013 10009 10004 9999 9994 9991 9986 9981 9976 9972 9967 9962 9957 9953 9948 9944 9939 9934 9929 9925 9920 9915 9910 9905